Airfield :
LOGIN :

Register | Disclaimer

   EN    FR    IT 

 










Legend :    VFR   Marginal VFR   IFR   Intensive IFR   Very Intensive IFR
Visi :
Ceiling :
>= 8 km
>= 3000ft
5 to 8 km
1000 to 3000 ft
1500m to 5 km
500 to 1000 ft
800 to 1500m
200 to 500 ft
< 800m
< 200 ft
Symbols :   Thunderstorms  Fog  Heavy snow  Heavy precipitations  Wind > 20 kt
SIGMETs :     Misc.  Thunderstorms  Icing  Turbulence  Mountain Waves  Volcanic Ashes







- Airport Elevation : 59 ft
- IATA code : TSF


LIPH - Treviso

CURRENT METAR :
  • 122250Z AUTO 01003KT 9999 NCD M01/M05 Q1019

EXPIRED METARs :
  • 122220Z AUTO 02003KT 9999 NCD M00/M05 Q1019
  • 122150Z VRB01KT CAVOK M00/M05 Q1019
  • 122120Z 02004KT CAVOK 00/M05 Q1019
  • 122050Z 02002KT CAVOK M01/M04 Q1019
  • 122020Z 01002KT CAVOK M00/M04 Q1019

TAF TAF LIPH
Valid from the 12 at 18:00 until the 13 at 18:00 UTC


121700Z 1218/1318 04010KT 9999 FEW030
TEMPO 1306/1312 RA
No reported NOTAMs for that airfield.



MET'MAP, your aeronautical weather chart ! - Copyright ORBIFLY December 2007 - Disclaimer

ORBIFLY MET'MAP TEAM :

Programming & Development : Alexandra Zaïnal
Concept & Development : Baudouin d'Aumeries
Co-Development & Prog : Marc-Olivier Méhu
Technical & hardware support : Manuel Goepfert

Contact : metmap@orbifly.com




SOURCES & CREDITS :

   NOAA